Beatrice, NE

7:00 PM CST on December 09, 2019 (GMT -0600)
Beatrice Municipal

Weather History for KBIE - November, 2019

Change the Weather History Date:

Saturday, November 16, 2019

  Actual Average Record
Temperature  
Mean Temperature 51 °F -  
Max Temperature 64 °F 55 °F 81 °F (2016)
Min Temperature 38 °F 31 °F 2 °F (1955)
Degree Days  
Heating Degree Days 14    
Growing Degree Days 1 (Base 50)    
Moisture  
Dew Point 32 °F    
Average Humidity 54    
Maximum Humidity 70    
Minimum Humidity 32    
Precipitation  
Precipitation 0.00 in - - ()
Sea Level Pressure  
Sea Level Pressure 30.04 in    
Wind  
Wind Speed 10 mph ()    
Max Wind Speed 20 mph    
Max Gust Speed 28 mph    
Visibility 10.0 miles    
Events      
Averages and records for this station are not official NWS values.
T = Trace of Precipitation, MM = Missing Value Source: Averaged Metar Reports

Daily Weather History Graph

Daily Weather History Graph

Search for Another Location

Airport or City:

Astronomy

Nov. 16, 2019 Rise Set
Actual Time 7:13 AM CST 5:09 PM CST
Civil Twilight 6:44 AM CST 5:38 PM CST
Nautical Twilight 6:11 AM CST 6:11 PM CST
Astronomical Twilight 5:39 AM CST 6:43 PM CST
Moon 8:43 PM CST (11/16) 11:08 AM CST (11/16)
Length of Visible Light 10h 53m
Length of Day
9h 55m
Waning Gibbous, 82% of the Moon is Illuminated
Nov 16
Waning Gibbous
Nov 19
Last Quarter
Nov 26
New
Dec 4
First Quarter
Dec 11
Full

Hourly Weather History & Observations

Time (CST) Temp. Windchill Dew Point Humidity Pressure Visibility Wind Dir Wind Speed Gust Speed Precip Events Conditions
12:15 AM 42.6 °F 37.2 °F 31.6 °F 65% 30.18 in 10.0 mi SSE 9.2 mph - N/A   Clear
12:35 AM 42.1 °F 36.1 °F 31.5 °F 66% 30.17 in 10.0 mi SSE 10.4 mph - N/A   Clear
12:55 AM 41.9 °F 35.9 °F 31.1 °F 66% 30.17 in 10.0 mi SSE 10.4 mph - N/A   Clear
1:15 AM 41.4 °F 35.2 °F 31.1 °F 67% 30.16 in 10.0 mi SSE 10.4 mph - N/A   Clear
1:35 AM 41.0 °F 34.7 °F 30.9 °F 67% 30.16 in 10.0 mi SSE 10.4 mph - N/A   Clear
1:55 AM 40.5 °F 33.6 °F 30.7 °F 68% 30.15 in 10.0 mi SSE 11.5 mph - N/A   Clear
2:15 AM 40.5 °F 34.1 °F 30.7 °F 68% 30.15 in 10.0 mi SSE 10.4 mph - N/A   Clear
2:35 AM 40.3 °F 33.4 °F 30.7 °F 69% 30.15 in 10.0 mi SSE 11.5 mph - N/A   Clear
2:55 AM 40.6 °F 33.8 °F 30.6 °F 67% 30.14 in 10.0 mi SSE 11.5 mph 16.1 mph N/A   Clear
3:15 AM 40.1 °F 32.7 °F 30.2 °F 68% 30.14 in 10.0 mi SSE 12.7 mph - N/A   Clear
3:35 AM 40.1 °F 33.6 °F 30.2 °F 68% 30.13 in 10.0 mi SSE 10.4 mph - N/A   Clear
3:55 AM 39.7 °F 33.2 °F 30.2 °F 69% 30.13 in 10.0 mi SSE 10.4 mph - N/A   Clear
4:15 AM 39.4 °F 32.7 °F 30.2 °F 70% 30.12 in 10.0 mi SSE 10.4 mph 16.1 mph N/A   Clear
4:35 AM 39.4 °F 32.7 °F 30.0 °F 69% 30.12 in 10.0 mi SSE 10.4 mph - N/A   Clear
4:55 AM 39.2 °F 32.0 °F 30.0 °F 70% 30.12 in 10.0 mi SSE 11.5 mph 17.3 mph N/A   Clear
5:15 AM 39.2 °F 33.0 °F 30.0 °F 70% 30.13 in 10.0 mi SSE 9.2 mph - N/A   Clear
5:35 AM 39.4 °F 32.7 °F 29.8 °F 69% 30.13 in 10.0 mi SSE 10.4 mph - N/A   Clear
6:15 AM 39.7 °F 31.5 °F 30.0 °F 68% 30.12 in 10.0 mi SSE 15.0 mph - N/A   Clear
6:35 AM 39.4 °F 32.3 °F 29.8 °F 69% 30.12 in 10.0 mi SSE 11.5 mph 17.3 mph N/A   Clear
6:55 AM 39.0 °F 31.8 °F 29.8 °F 70% 30.12 in 10.0 mi SSE 11.5 mph 17.3 mph N/A   Clear
7:15 AM 38.8 °F 31.2 °F 29.8 °F 70% 30.11 in 10.0 mi SSE 12.7 mph - N/A   Clear
7:35 AM 38.8 °F 31.2 °F 29.8 °F 70% 30.11 in 10.0 mi SSE 12.7 mph - N/A   Clear
7:55 AM 39.2 °F 31.2 °F 29.8 °F 69% 30.10 in 10.0 mi SSE 13.8 mph - N/A   Clear
8:15 AM 40.1 °F 33.2 °F 30.0 °F 67% 30.10 in 10.0 mi SSE 11.5 mph - N/A   Clear
8:35 AM 41.5 °F 35.4 °F 30.2 °F 64% 30.11 in 10.0 mi SSE 10.4 mph - N/A   Clear
8:55 AM 42.8 °F 36.2 °F 30.4 °F 62% 30.10 in 10.0 mi SSE 12.7 mph 17.3 mph N/A   Clear
9:15 AM 44.8 °F 38.7 °F 31.1 °F 59% 30.09 in 10.0 mi SSE 12.7 mph - N/A   Clear
9:55 AM 49.3 °F - 32.0 °F 51% 30.09 in 10.0 mi South 12.7 mph 20.7 mph N/A   Clear
10:15 AM 50.4 °F - 32.0 °F 49% 30.08 in 10.0 mi South 16.1 mph 19.6 mph N/A   Clear
10:35 AM 52.2 °F - 32.0 °F 46% 30.07 in 10.0 mi South 13.8 mph 20.7 mph N/A   Clear
10:55 AM 52.9 °F - 32.2 °F 45% 30.05 in 10.0 mi South 13.8 mph 20.7 mph N/A   Clear
11:15 AM 54.9 °F - 32.4 °F 42% 30.04 in 10.0 mi South 15.0 mph 20.7 mph N/A   Clear
11:35 AM 56.3 °F - 32.7 °F 41% 30.04 in 10.0 mi South 17.3 mph 23.0 mph N/A   Clear
11:55 AM 57.6 °F - 32.9 °F 39% 30.02 in 10.0 mi South 17.3 mph - N/A   Clear
12:15 PM 56.1 °F - 32.5 °F 41% 30.00 in 10.0 mi South 15.0 mph 20.7 mph N/A   Clear
12:35 PM 59.2 °F - 32.9 °F 37% 30.00 in 10.0 mi South 19.6 mph 27.6 mph N/A   Clear
12:50 PM 59.9 °F - 33.3 °F 37% 29.99 in 10.0 mi South 11.5 mph 21.9 mph N/A   Clear
1:15 PM 61.2 °F - 33.6 °F 36% 29.97 in 10.0 mi South 17.3 mph 21.9 mph N/A   Clear
1:35 PM 63.7 °F - 33.6 °F 33% 29.97 in 10.0 mi South 15.0 mph 21.9 mph N/A   Clear
2:15 PM 64.0 °F - 33.8 °F 32% 29.95 in 10.0 mi South 13.8 mph - N/A   Clear
2:55 PM 63.9 °F - 33.1 °F 32% 29.93 in 10.0 mi South 13.8 mph 23.0 mph N/A   Clear
3:15 PM 64.0 °F - 33.3 °F 32% 29.93 in 10.0 mi South 12.7 mph 19.6 mph N/A   Clear
3:35 PM 64.0 °F - 33.3 °F 32% 29.92 in 10.0 mi SSE 13.8 mph 20.7 mph N/A   Clear
3:55 PM 63.0 °F - 33.3 °F 33% 29.91 in 10.0 mi SSE 16.1 mph - N/A   Clear
4:15 PM 61.3 °F - 33.3 °F 35% 29.92 in 10.0 mi SSE 11.5 mph 20.7 mph N/A   Clear
4:35 PM 60.1 °F - 33.3 °F 36% 29.92 in 10.0 mi SSE 12.7 mph - N/A   Clear
5:15 PM 57.4 °F - 33.1 °F 40% 29.93 in 10.0 mi SSE 8.1 mph - N/A   Clear
5:35 PM 57.0 °F - 32.9 °F 40% 29.94 in 10.0 mi South 11.5 mph - N/A   Clear
5:55 PM 56.5 °F - 32.9 °F 41% 29.95 in 10.0 mi South 10.4 mph 18.4 mph N/A   Clear
6:15 PM 55.2 °F - 32.5 °F 42% 29.95 in 10.0 mi South 9.2 mph - N/A   Clear
6:35 PM 54.3 °F - 32.4 °F 43% 29.96 in 10.0 mi SSE 9.2 mph - N/A   Clear
6:55 PM 53.2 °F - 32.5 °F 45% 29.97 in 10.0 mi SSE 8.1 mph - N/A   Clear
7:35 PM 52.2 °F - 32.9 °F 48% 29.97 in 10.0 mi SSE 8.1 mph - N/A   Clear
7:55 PM 52.0 °F - 32.5 °F 48% 29.97 in 10.0 mi SSE 6.9 mph - N/A   Clear
8:15 PM 50.9 °F - 32.9 °F 50% 29.98 in 10.0 mi SSE 6.9 mph - N/A   Clear
8:35 PM 50.2 °F - 32.5 °F 51% 29.98 in 10.0 mi SSE 8.1 mph - N/A   Clear
8:55 PM 50.2 °F - 32.7 °F 51% 29.98 in 10.0 mi SSE 9.2 mph - N/A   Clear
9:15 PM 50.0 °F - 32.7 °F 52% 29.98 in 10.0 mi SSE 8.1 mph - N/A   Clear
9:35 PM 50.0 °F - 32.9 °F 52% 29.98 in 10.0 mi South 9.2 mph - N/A   Clear
9:55 PM 50.0 °F - 32.9 °F 52% 29.98 in 10.0 mi South 6.9 mph - N/A   Clear
10:15 PM 48.9 °F - 32.9 °F 54% 29.99 in 10.0 mi Calm Calm - N/A   Clear
10:35 PM 48.0 °F - 33.3 °F 57% 29.98 in 10.0 mi South 5.8 mph - N/A   Clear
10:55 PM 48.6 °F - 33.3 °F 56% 29.97 in 10.0 mi South 4.6 mph - N/A   Clear
11:30 PM 48.2 °F - 33.4 °F 57% 29.97 in 10.0 mi SSW 4.6 mph - N/A   Overcast
11:55 PM 47.3 °F - 33.8 °F 59% 29.98 in 10.0 mi WSW 6.9 mph - N/A   Overcast